Location: Demmingen
(48.6757°N, 10.4375°E)
Time: 20:56:39
(UTC+00:00)

SL-16 R/B - Pass Details

Date: 08 August 2024
Orbit: 842 x 845 km, 71.0° (Epoch: 10 September)

Event Time Altitude Azimuth Distance (km) Brightness Sun altitude
Exits shadow 01:25:27 20° 264° (W) 1,849 3.6 -19.9°
Maximum altitude 01:28:24 32° 312° (NW) 1,421 3.4 -19.6°
Drops below altitude 10° 01:33:27 10° 15° (NNE) 2,476 5.7 -19.2°
Sets 01:36:11 0° 25° (NNE) 3,415 7.0 -18.9°
